User: anonymous   Login
Location: Unspecified
(0.0000°N, 0.0000°E)
Time: 05:54:11
(UTC+02:00)
Language:

Cosmos 1933 - Orbit

View from above orbital plane
View from above orbital plane
View from above satellite
View from above satellite

Ground track
Ground track

The orbit data is extracted from the following two-line orbital elements,

1 18958U 88020A   16209.94069497 +.00000270 +00000-0 +17959-4 0  9999
2 18958 082.5282 056.6580 0010488 310.3602 049.6707 15.02964267521650
Epoch (UTC): 27 July 2016 22:34:36
Eccentricity: 0.0010488
inclination: 82.5282°
perigee height: 550 km
apogee height: 565 km
right ascension of ascending node: 56.6580°
argument of perigee: 310.3602°
revolutions per day: 15.02964267
mean anomaly at epoch: 49.6707°
orbit number at epoch: 52165

The dashed part of the orbit path shows where the satellite is in the earth's shadow,  

DLR